Weather History for KDSM - December, 2013

Change the Weather History Date:

Friday, December 27, 2013

  Actual Average Record
Temperature  
Mean Temperature 33 °F 23 °F  
Max Temperature 48 °F 31 °F 64 °F (1946)
Min Temperature 17 °F 16 °F -20 °F (1886)
Degree Days  
Heating Degree Days 32 42  
Month to date heating degree days 1166 1041  
Since 1 July heating degree days 2369 2299  
Cooling Degree Days 0 0  
Month to date cooling degree days 0 0  
Year to date cooling degree days 1353 1066  
Moisture  
Dew Point 23 °F    
Average Humidity 63    
Maximum Humidity 84    
Minimum Humidity 42    
Precipitation  
Precipitation 0.00 in 0.04 in 1.48 in (1982)
Month to date precipitation 0.71 1.27  
Year to date precipitation 31.90 35.87  
Snow  
Snow 0.00 in 0.30 in 10.00 in (1904)
Month to date snowfall 12.2 7.9  
Since 1 July snowfall 13.6 10.8  
Snow Depth 4.00 in    
Sea Level Pressure  
Sea Level Pressure 30.19 in    
Wind  
Wind Speed 8 mph (SW)    
Max Wind Speed 21 mph    
Max Gust Speed 23 mph    
Visibility 10 miles    
Events      
T = Trace of Precipitation, MM = Missing Value Source: NWS Daily Summary

Daily Weather History Graph

Daily Weather History Graph

Search for Another Location

Airport or City:

Trip Planner

Search our weather history database for the weather conditions in past years. The results will help you decide how hot, cold, wet, or windy it might be!

Date:

Astronomy

Dec. 27, 2013 Rise Set
Actual Time 7:40 AM CST 4:51 PM CST
Civil Twilight 7:08 AM CST 5:23 PM CST
Nautical Twilight 6:33 AM CST 5:57 PM CST
Astronomical Twilight 6:00 AM CST 6:31 PM CST
Moon 2:10 AM CST (12/27) 1:04 PM CST (12/27)
Length of Visible Light 10h 14m
Length of Day
9h 11m
Waning Crescent, 28% of the Moon is Illuminated
Dec 27
Waning Crescent
Jan 1
New
Jan 7
First Quarter
Jan 15
Full
Jan 23
Last Quarter

Hourly Weather History & Observations

Time (CST) Temp. Windchill Dew Point Humidity Pressure Visibility Wind Dir Wind Speed Gust Speed Precip Events Conditions
12:54 AM 26.1 °F 21.9 °F 19.9 °F 78% 30.25 in 10.0 mi NNW 3.5 mph - N/A   Clear
1:54 AM 25.0 °F 17.1 °F 19.0 °F 78% 30.27 in 10.0 mi SW 6.9 mph - N/A   Clear
2:54 AM 23.0 °F 14.7 °F 18.0 °F 81% 30.28 in 10.0 mi WSW 6.9 mph - N/A   Clear
3:54 AM 24.1 °F - 18.0 °F 77% 30.27 in 10.0 mi Calm Calm - N/A   Clear
4:54 AM 21.9 °F 15.7 °F 18.0 °F 85% 30.27 in 10.0 mi SW 4.6 mph - N/A   Clear
5:54 AM 21.9 °F 14.5 °F 17.1 °F 82% 30.27 in 10.0 mi SSW 5.8 mph - N/A   Clear
6:54 AM 21.9 °F 15.7 °F 17.1 °F 82% 30.27 in 10.0 mi SW 4.6 mph - N/A   Clear
7:54 AM 19.0 °F 8.2 °F 14.0 °F 81% 30.27 in 10.0 mi South 9.2 mph - N/A   Partly Cloudy
8:54 AM 21.9 °F 13.4 °F 18.0 °F 85% 30.27 in 10.0 mi South 6.9 mph - N/A   Scattered Clouds
9:54 AM 27.0 °F 20.5 °F 19.9 °F 75% 30.26 in 10.0 mi SSW 5.8 mph - N/A   Mostly Cloudy
10:54 AM 35.1 °F 28.6 °F 24.1 °F 64% 30.24 in 10.0 mi SSW 8.1 mph - N/A   Mostly Cloudy
11:54 AM 41.0 °F 34.7 °F 26.1 °F 55% 30.20 in 10.0 mi SW 10.4 mph - N/A   Mostly Cloudy
12:54 PM 45.0 °F 37.9 °F 27.0 °F 49% 30.16 in 10.0 mi SW 16.1 mph - N/A   Scattered Clouds
1:54 PM 46.9 °F - 27.0 °F 46% 30.13 in 10.0 mi SW 15.0 mph - N/A   Mostly Cloudy
2:54 PM 48.0 °F - 27.0 °F 44% 30.12 in 10.0 mi SW 15.0 mph - N/A   Mostly Cloudy
3:54 PM 46.0 °F 39.3 °F 28.0 °F 50% 30.11 in 10.0 mi SW 16.1 mph - N/A   Overcast
4:54 PM 45.0 °F 38.2 °F 28.0 °F 52% 30.11 in 10.0 mi SW 15.0 mph - N/A   Mostly Cloudy
5:54 PM 42.1 °F 36.6 °F 28.0 °F 58% 30.13 in 10.0 mi SW 9.2 mph - N/A   Partly Cloudy
6:54 PM 43.0 °F 37.2 °F 28.0 °F 56% 30.13 in 10.0 mi SW 10.4 mph - N/A   Clear
7:54 PM 42.1 °F 37.1 °F 28.0 °F 58% 30.14 in 10.0 mi SW 8.1 mph - N/A   Clear
8:54 PM 39.9 °F 36.7 °F 27.0 °F 60% 30.14 in 10.0 mi SSW 4.6 mph - N/A   Clear
9:54 PM 39.0 °F 33.4 °F 28.0 °F 65% 30.14 in 10.0 mi SW 8.1 mph - N/A   Clear
10:54 PM 39.0 °F 35.7 °F 27.0 °F 62% 30.12 in 10.0 mi SW 4.6 mph - N/A   Clear
11:54 PM 39.0 °F 35.7 °F 27.0 °F 62% 30.11 in 10.0 mi SSW 4.6 mph - N/A   Clear